Location: ?
(35.4996°N, 139.3166°E)
Time: 14:11:36
(UTC+00:00)

Cosmos 1933 Rocket - Pass Details

Date: 18 April 2024
Orbit: 602 x 628 km, 82.5° (Epoch: 18 May)

Event Time Altitude Azimuth Distance (km) Brightness Sun altitude
Rises 19:02:25 0° 349° (N) 2,874 7.2 -12.9°
Reaches altitude 10° 19:04:39 10° 346° (NNW) 1,962 6.3 -12.5°
Maximum altitude 19:08:56 63° 266° (W) 675 3.5 -11.7°
Drops below altitude 10° 19:13:10 10° 185° (S) 1,939 5.8 -10.9°
Sets 19:15:23 0° 182° (S) 2,837 6.7 -10.5°
